Time,TemperatureF,DewpointF,PressureIn,WindDirection,WindDirectionDegrees,WindSpeedMPH,WindSpeedGustMPH,Humidity,HourlyPrecipIn,Conditions,Clouds,dailyrainin,SoftwareType,DateUTC
2013-01-27 00:03:00,19.0,15.0,30.39,NNE,33,3.0,5.0,83,0.00,,,0.02,,2013-01-27 05:03:00,
2013-01-27 00:12:00,19.0,15.0,30.39,NNE,33,3.0,5.0,83,0.00,,,0.02,,2013-01-27 05:12:00,
2013-01-27 00:22:00,19.0,15.0,30.39,NE,47,4.0,6.0,83,0.00,,,0.02,,2013-01-27 05:22:00,
2013-01-27 00:32:00,18.0,13.0,30.39,ESE,106,5.0,6.0,82,0.00,,,0.02,,2013-01-27 05:32:00,
2013-01-27 00:41:00,18.0,13.0,30.39,ESE,106,5.0,6.0,82,0.00,,,0.02,,2013-01-27 05:41:00,
2013-01-27 00:52:00,18.0,14.0,30.39,SE,134,5.0,6.0,84,0.00,,,0.02,,2013-01-27 05:52:00,
2013-01-27 01:02:00,19.0,15.0,30.40,SE,135,0.0,5.0,84,0.00,,,0.02,,2013-01-27 06:02:00,
2013-01-27 01:11:00,19.0,15.0,30.40,SE,135,0.0,5.0,84,0.00,,,0.02,,2013-01-27 06:11:00,
2013-01-27 01:21:00,19.0,15.0,30.39,SE,135,0.0,0.0,83,0.00,,,0.02,,2013-01-27 06:21:00,
2013-01-27 01:32:00,18.0,14.0,30.39,SE,135,0.0,0.0,83,0.00,,,0.02,,2013-01-27 06:32:00,
2013-01-27 01:42:00,18.0,14.0,30.39,SE,135,0.0,0.0,83,0.00,,,0.02,,2013-01-27 06:42:00,
2013-01-27 01:52:00,19.0,15.0,30.38,SE,134,0.0,0.0,84,0.00,,,0.02,,2013-01-27 06:52:00,
2013-01-27 02:01:00,19.0,15.0,30.37,SE,135,0.0,0.0,85,0.00,,,0.02,,2013-01-27 07:01:00,
2013-01-27 02:14:00,19.0,15.0,30.37,SE,135,0.0,0.0,85,0.00,,,0.02,,2013-01-27 07:14:00,
2013-01-27 02:21:00,20.0,16.0,30.37,SE,135,0.0,0.0,85,0.00,,,0.02,,2013-01-27 07:21:00,
2013-01-27 02:32:00,20.0,16.0,30.37,SE,134,0.0,3.0,83,0.00,,,0.02,,2013-01-27 07:32:00,
2013-01-27 02:42:00,20.0,16.0,30.37,SE,134,0.0,3.0,83,0.00,,,0.02,,2013-01-27 07:42:00,
2013-01-27 02:52:00,20.0,16.0,30.37,SE,134,3.0,7.0,83,0.00,,,0.02,,2013-01-27 07:52:00,
2013-01-27 03:01:00,20.0,15.0,30.38,SE,133,2.0,6.0,82,0.00,,,0.02,,2013-01-27 08:01:00,
2013-01-27 03:11:00,20.0,15.0,30.38,SE,133,2.0,6.0,82,0.00,,,0.02,,2013-01-27 08:11:00,
2013-01-27 03:22:00,20.0,15.0,30.39,SE,132,0.0,7.0,82,0.00,,,0.02,,2013-01-27 08:22:00,
2013-01-27 03:32:00,19.0,14.0,30.39,SE,132,0.0,0.0,80,0.00,,,0.02,,2013-01-27 08:32:00,
2013-01-27 03:42:00,19.0,14.0,30.39,SE,132,0.0,0.0,80,0.00,,,0.02,,2013-01-27 08:42:00,
2013-01-27 03:52:00,18.0,13.0,30.39,SE,135,0.0,0.0,79,0.00,,,0.02,,2013-01-27 08:52:00,
2013-01-27 04:02:00,17.0,13.0,30.39,SE,134,0.0,6.0,83,0.00,,,0.02,,2013-01-27 09:02:00,
2013-01-27 04:11:00,17.0,13.0,30.39,SE,134,0.0,6.0,83,0.00,,,0.02,,2013-01-27 09:11:00,
2013-01-27 04:21:00,17.0,13.0,30.39,SE,134,0.0,0.0,84,0.00,,,0.02,,2013-01-27 09:21:00,
2013-01-27 04:32:00,17.0,13.0,30.39,SE,134,0.0,0.0,84,0.00,,,0.02,,2013-01-27 09:32:00,
2013-01-27 04:41:00,17.0,13.0,30.39,SE,134,0.0,0.0,84,0.00,,,0.02,,2013-01-27 09:41:00,
2013-01-27 04:52:00,17.0,15.0,30.38,SE,138,6.0,9.0,92,0.00,,,0.02,,2013-01-27 09:52:00,
2013-01-27 05:01:00,17.0,14.0,30.38,SE,139,5.0,8.0,86,0.00,,,0.02,,2013-01-27 10:01:00,
2013-01-27 05:11:00,18.0,15.0,30.37,SE,130,3.0,7.0,86,0.00,,,0.02,,2013-01-27 10:11:00,
2013-01-27 05:21:00,18.0,15.0,30.37,SE,130,3.0,7.0,86,0.00,,,0.02,,2013-01-27 10:21:00,
2013-01-27 05:32:00,18.0,14.0,30.38,SE,133,6.0,7.0,85,0.00,,,0.02,,2013-01-27 10:32:00,
2013-01-27 05:42:00,18.0,14.0,30.38,SE,133,6.0,7.0,85,0.00,,,0.02,,2013-01-27 10:42:00,
2013-01-27 05:52:00,18.0,14.0,30.38,SE,134,5.0,7.0,85,0.00,,,0.02,,2013-01-27 10:52:00,
2013-01-27 06:01:00,18.0,14.0,30.38,SE,132,3.0,6.0,85,0.00,,,0.02,,2013-01-27 11:01:00,
2013-01-27 06:11:00,18.0,14.0,30.37,ESE,121,2.0,7.0,84,0.00,,,0.02,,2013-01-27 11:11:00,
2013-01-27 06:21:00,18.0,14.0,30.37,ESE,121,2.0,7.0,84,0.00,,,0.02,,2013-01-27 11:21:00,
2013-01-27 06:32:00,18.0,14.0,30.38,ESE,114,6.0,7.0,85,0.00,,,0.02,,2013-01-27 11:32:00,
2013-01-27 06:42:00,18.0,14.0,30.38,ESE,114,6.0,7.0,85,0.00,,,0.02,,2013-01-27 11:42:00,
2013-01-27 06:52:00,17.0,13.0,30.38,ESE,118,4.0,6.0,84,0.00,,,0.02,,2013-01-27 11:52:00,
2013-01-27 07:02:00,17.0,13.0,30.37,SE,126,5.0,10.0,85,0.00,,,0.02,,2013-01-27 12:02:00,
2013-01-27 07:12:00,17.0,13.0,30.37,SE,126,5.0,10.0,85,0.00,,,0.02,,2013-01-27 12:12:00,
2013-01-27 07:22:00,17.0,13.0,30.37,SE,126,6.0,9.0,85,0.00,,,0.02,,2013-01-27 12:22:00,
2013-01-27 07:32:00,17.0,14.0,30.38,SE,129,5.0,9.0,86,0.00,,,0.02,,2013-01-27 12:32:00,
2013-01-27 07:42:00,17.0,14.0,30.38,SE,129,5.0,9.0,86,0.00,,,0.02,,2013-01-27 12:42:00,
2013-01-27 07:52:00,17.0,14.0,30.38,SE,129,5.0,9.0,86,0.00,,,0.02,,2013-01-27 12:52:00,
2013-01-27 08:02:00,17.0,14.0,30.38,SE,130,5.0,9.0,86,0.00,,,0.02,,2013-01-27 13:02:00,
2013-01-27 08:11:00,17.0,14.0,30.38,SE,130,5.0,9.0,86,0.00,,,0.02,,2013-01-27 13:11:00,
2013-01-27 08:22:00,16.0,13.0,30.39,SE,131,6.0,7.0,86,0.00,,,0.02,,2013-01-27 13:22:00,
2013-01-27 08:32:00,16.0,13.0,30.39,SE,129,5.0,10.0,86,0.00,,,0.02,,2013-01-27 13:32:00,
2013-01-27 08:42:00,16.0,13.0,30.39,SE,129,5.0,10.0,86,0.00,,,0.02,,2013-01-27 13:42:00,
2013-01-27 08:52:00,17.0,14.0,30.39,SE,129,8.0,11.0,86,0.00,,,0.02,,2013-01-27 13:52:00,
2013-01-27 09:02:00,18.0,15.0,30.38,SE,125,9.0,13.0,86,0.00,,,0.02,,2013-01-27 14:02:00,
2013-01-27 09:12:00,18.0,15.0,30.38,SE,125,9.0,13.0,86,0.00,,,0.02,,2013-01-27 14:12:00,
2013-01-27 09:22:00,18.0,14.0,30.38,SE,131,9.0,13.0,85,0.00,,,0.02,,2013-01-27 14:22:00,
2013-01-27 09:32:00,19.0,15.0,30.38,SE,138,8.0,14.0,84,0.00,,,0.02,,2013-01-27 14:32:00,
2013-01-27 09:43:00,19.0,15.0,30.38,SE,138,8.0,14.0,84,0.00,,,0.02,,2013-01-27 14:43:00,
2013-01-27 09:53:00,20.0,16.0,30.37,SE,134,11.0,14.0,84,0.00,,,0.02,,2013-01-27 14:53:00,
2013-01-27 10:02:00,21.0,17.0,30.37,SE,146,10.0,16.0,83,0.00,,,0.02,,2013-01-27 15:02:00,
2013-01-27 10:12:00,21.0,17.0,30.37,SE,146,10.0,16.0,83,0.00,,,0.02,,2013-01-27 15:12:00,
2013-01-27 10:22:00,22.0,17.0,30.37,SE,126,8.0,15.0,82,0.00,,,0.02,,2013-01-27 15:22:00,
2013-01-27 10:32:00,22.0,17.0,30.38,SE,142,11.0,14.0,81,0.00,,,0.02,,2013-01-27 15:32:00,
2013-01-27 10:42:00,22.0,17.0,30.38,SE,142,11.0,14.0,81,0.00,,,0.02,,2013-01-27 15:42:00,
2013-01-27 10:53:00,23.0,18.0,30.38,SE,146,13.0,17.0,81,0.00,,,0.02,,2013-01-27 15:53:00,
2013-01-27 11:02:00,23.0,18.0,30.38,SE,140,12.0,15.0,81,0.00,,,0.02,,2013-01-27 16:02:00,
2013-01-27 11:12:00,23.0,18.0,30.38,SE,140,12.0,15.0,81,0.00,,,0.02,,2013-01-27 16:12:00,
2013-01-27 11:22:00,23.0,18.0,30.38,SE,140,12.0,15.0,81,0.00,,,0.02,,2013-01-27 16:22:00,
2013-01-27 11:32:00,25.0,20.0,30.38,SE,139,10.0,14.0,80,0.00,,,0.02,,2013-01-27 16:32:00,
2013-01-27 11:42:00,25.0,20.0,30.38,SE,139,10.0,14.0,80,0.00,,,0.02,,2013-01-27 16:42:00,
2013-01-27 11:53:00,25.0,19.0,30.37,SE,138,9.0,14.0,79,0.00,,,0.02,,2013-01-27 16:53:00,
2013-01-27 12:02:00,26.0,20.0,30.37,SE,138,9.0,13.0,79,0.00,,,0.02,,2013-01-27 17:02:00,
2013-01-27 12:12:00,26.0,20.0,30.37,SE,138,9.0,13.0,79,0.00,,,0.02,,2013-01-27 17:12:00,
2013-01-27 12:22:00,26.0,20.0,30.36,SE,138,9.0,14.0,79,0.00,,,0.02,,2013-01-27 17:22:00,
2013-01-27 12:32:00,27.0,21.0,30.35,SE,132,10.0,14.0,79,0.00,,,0.02,,2013-01-27 17:32:00,
2013-01-27 12:42:00,27.0,21.0,30.35,SE,132,10.0,14.0,79,0.00,,,0.02,,2013-01-27 17:42:00,
2013-01-27 12:53:00,28.0,22.0,30.35,SSE,150,10.0,14.0,79,0.00,,,0.02,,2013-01-27 17:53:00,
2013-01-27 13:02:00,28.0,22.0,30.34,SE,126,10.0,14.0,79,0.00,,,0.02,,2013-01-27 18:02:00,
2013-01-27 13:12:00,28.0,22.0,30.34,SE,126,10.0,14.0,79,0.00,,,0.02,,2013-01-27 18:12:00,
2013-01-27 13:22:00,28.0,22.0,30.32,SE,128,10.0,13.0,78,0.00,,,0.02,,2013-01-27 18:22:00,
2013-01-27 13:32:00,28.0,22.0,30.32,SE,135,9.0,13.0,79,0.00,,,0.02,,2013-01-27 18:32:00,
2013-01-27 13:42:00,28.0,22.0,30.32,SE,135,9.0,13.0,79,0.00,,,0.02,,2013-01-27 18:42:00,
2013-01-27 13:53:00,28.0,22.0,30.30,SE,126,10.0,13.0,79,0.00,,,0.01,,2013-01-27 18:53:00,
2013-01-27 14:02:00,29.0,23.0,30.29,SE,124,8.0,13.0,78,0.00,,,0.01,,2013-01-27 19:02:00,
2013-01-27 14:12:00,29.0,23.0,30.29,SE,124,8.0,13.0,78,0.00,,,0.01,,2013-01-27 19:12:00,
2013-01-27 14:22:00,29.0,23.0,30.28,SE,137,11.0,15.0,78,0.00,,,0.01,,2013-01-27 19:22:00,
2013-01-27 14:32:00,29.0,23.0,30.26,SE,127,9.0,16.0,78,0.00,,,0.01,,2013-01-27 19:32:00,
2013-01-27 14:42:00,29.0,23.0,30.26,SE,127,9.0,16.0,78,0.00,,,0.01,,2013-01-27 19:42:00,
2013-01-27 14:52:00,30.0,24.0,30.25,SE,139,13.0,16.0,78,0.00,,,0.00,,2013-01-27 19:52:00,
2013-01-27 15:02:00,30.0,24.0,30.25,SE,133,11.0,13.0,78,0.00,,,0.00,,2013-01-27 20:02:00,
2013-01-27 15:12:00,30.0,24.0,30.25,SE,133,11.0,13.0,78,0.00,,,0.00,,2013-01-27 20:12:00,
2013-01-27 15:22:00,30.0,24.0,30.23,SE,126,11.0,16.0,78,0.00,,,0.00,,2013-01-27 20:22:00,
2013-01-27 15:33:00,30.0,24.0,30.22,SE,134,10.0,14.0,79,0.00,,,0.00,,2013-01-27 20:33:00,
2013-01-27 15:42:00,30.0,24.0,30.22,SE,134,10.0,14.0,79,0.00,,,0.00,,2013-01-27 20:42:00,
2013-01-27 15:52:00,31.0,25.0,30.23,SE,133,11.0,17.0,78,0.00,,,0.00,,2013-01-27 20:52:00,
2013-01-27 16:02:00,31.0,25.0,30.23,ESE,117,5.0,10.0,79,0.00,,,0.00,,2013-01-27 21:02:00,
2013-01-27 16:12:00,31.0,25.0,30.23,ESE,117,5.0,10.0,79,0.00,,,0.00,,2013-01-27 21:12:00,
2013-01-27 16:22:00,31.0,25.0,30.21,ESE,109,5.0,14.0,79,0.00,,,0.00,,2013-01-27 21:22:00,
2013-01-27 16:33:00,31.0,26.0,30.20,ESE,111,4.0,10.0,80,0.00,,,0.00,,2013-01-27 21:33:00,
2013-01-27 16:42:00,31.0,26.0,30.20,ESE,111,4.0,10.0,80,0.00,,,0.00,,2013-01-27 21:42:00,
2013-01-27 16:52:00,31.0,26.0,30.20,ESE,118,10.0,14.0,80,0.00,,,0.00,,2013-01-27 21:52:00,
2013-01-27 17:02:00,31.0,26.0,30.20,ESE,105,8.0,15.0,80,0.00,,,0.00,,2013-01-27 22:02:00,
2013-01-27 17:12:00,31.0,26.0,30.20,ESE,105,8.0,15.0,80,0.00,,,0.00,,2013-01-27 22:12:00,
2013-01-27 17:22:00,30.0,25.0,30.21,ESE,106,8.0,15.0,80,0.00,,,0.00,,2013-01-27 22:22:00,
2013-01-27 17:32:00,30.0,25.0,30.19,ESE,113,11.0,17.0,80,0.00,,,0.00,,2013-01-27 22:32:00,
2013-01-27 17:42:00,30.0,25.0,30.19,ESE,113,11.0,17.0,80,0.00,,,0.00,,2013-01-27 22:42:00,
2013-01-27 17:52:00,30.0,25.0,30.19,ESE,113,11.0,14.0,81,0.00,,,0.00,,2013-01-27 22:52:00,
2013-01-27 18:02:00,30.0,25.0,30.19,ESE,115,10.0,14.0,81,0.00,,,0.00,,2013-01-27 23:02:00,
2013-01-27 18:12:00,30.0,25.0,30.19,ESE,115,10.0,14.0,81,0.00,,,0.00,,2013-01-27 23:12:00,
2013-01-27 18:22:00,30.0,25.0,30.19,ESE,119,8.0,15.0,83,0.00,,,0.00,,2013-01-27 23:22:00,
2013-01-27 18:32:00,30.0,26.0,30.22,ESE,117,6.0,9.0,85,0.00,,,0.00,,2013-01-27 23:32:00,
2013-01-27 18:42:00,30.0,26.0,30.22,ESE,117,6.0,9.0,85,0.00,,,0.00,,2013-01-27 23:42:00,
2013-01-27 18:53:00,31.0,28.0,30.22,ESE,115,3.0,11.0,87,0.00,,,0.00,,2013-01-27 23:53:00,
2013-01-27 19:02:00,31.0,28.0,30.22,ESE,113,5.0,10.0,89,0.00,,,0.00,,2013-01-28 00:02:00,
2013-01-27 19:12:00,31.0,28.0,30.22,ESE,113,5.0,10.0,89,0.00,,,0.00,,2013-01-28 00:12:00,
2013-01-27 19:21:00,30.0,27.0,30.21,ESE,117,6.0,10.0,90,0.00,,,0.00,,2013-01-28 00:21:00,
2013-01-27 19:32:00,30.0,28.0,30.22,SE,128,7.0,10.0,91,0.00,,,0.00,,2013-01-28 00:32:00,
2013-01-27 19:42:00,30.0,28.0,30.22,SE,128,7.0,10.0,91,0.00,,,0.00,,2013-01-28 00:42:00,
2013-01-27 19:52:00,31.0,29.0,30.21,ESE,123,6.0,10.0,91,0.00,,,0.00,,2013-01-28 00:52:00,
2013-01-27 20:02:00,31.0,29.0,30.19,ESE,117,5.0,11.0,92,0.00,,,0.00,,2013-01-28 01:02:00,
2013-01-27 20:11:00,31.0,29.0,30.19,ESE,117,5.0,11.0,92,0.00,,,0.00,,2013-01-28 01:11:00,
2013-01-27 20:22:00,31.0,29.0,30.19,SE,137,0.0,0.0,92,0.00,,,0.00,,2013-01-28 01:22:00,
2013-01-27 20:33:00,31.0,29.0,30.17,ESE,117,0.0,0.0,92,0.00,,,0.00,,2013-01-28 01:33:00,
2013-01-27 20:42:00,31.0,29.0,30.17,ESE,117,0.0,0.0,92,0.00,,,0.00,,2013-01-28 01:42:00,
2013-01-27 20:52:00,31.0,29.0,30.16,SSE,150,0.0,0.0,92,0.00,,,0.00,,2013-01-28 01:52:00,
2013-01-27 21:02:00,31.0,29.0,30.13,SE,132,0.0,0.0,92,0.00,,,0.00,,2013-01-28 02:02:00,
2013-01-27 21:11:00,31.0,29.0,30.13,SE,132,0.0,0.0,92,0.00,,,0.00,,2013-01-28 02:11:00,
2013-01-27 21:22:00,31.0,29.0,30.13,SE,140,0.0,0.0,93,0.00,,,0.00,,2013-01-28 02:22:00,
2013-01-27 21:32:00,32.0,30.0,30.11,SSE,149,0.0,0.0,93,0.00,,,0.00,,2013-01-28 02:32:00,
2013-01-27 21:42:00,32.0,30.0,30.11,SSE,149,0.0,0.0,93,0.00,,,0.00,,2013-01-28 02:42:00,
2013-01-27 21:53:00,32.0,30.0,30.10,SSE,150,0.0,0.0,93,0.00,,,0.00,,2013-01-28 02:53:00,
2013-01-27 22:02:00,32.0,30.0,30.09,SSE,152,0.0,0.0,93,0.00,,,0.00,,2013-01-28 03:02:00,
2013-01-27 22:12:00,32.0,30.0,30.09,SSE,152,0.0,0.0,93,0.00,,,0.00,,2013-01-28 03:12:00,
2013-01-27 22:22:00,32.0,30.0,30.09,SE,132,0.0,0.0,93,0.00,,,0.00,,2013-01-28 03:22:00,
2013-01-27 22:32:00,32.0,30.0,30.07,SE,144,0.0,0.0,93,0.00,,,0.00,,2013-01-28 03:32:00,
2013-01-27 22:42:00,32.0,30.0,30.07,SE,144,0.0,0.0,93,0.00,,,0.00,,2013-01-28 03:42:00,
2013-01-27 22:53:00,32.0,30.0,30.06,SSE,155,0.0,0.0,94,0.00,,,0.00,,2013-01-28 03:53:00,
2013-01-27 23:02:00,33.0,31.0,30.05,SSE,161,0.0,0.0,94,0.00,,,0.00,,2013-01-28 04:02:00,
2013-01-27 23:12:00,33.0,31.0,30.05,SSE,161,0.0,0.0,94,0.00,,,0.00,,2013-01-28 04:12:00,
2013-01-27 23:22:00,33.0,31.0,30.05,SSE,164,0.0,0.0,94,0.00,,,0.00,,2013-01-28 04:22:00,
2013-01-27 23:32:00,33.0,31.0,30.05,SSE,158,0.0,0.0,94,0.00,,,0.00,,2013-01-28 04:32:00,
2013-01-27 23:42:00,33.0,31.0,30.05,SSE,158,0.0,0.0,94,0.00,,,0.00,,2013-01-28 04:42:00,
2013-01-27 23:52:00,33.0,31.0,30.05,SSE,166,0.0,0.0,94,0.00,,,0.00,,2013-01-28 04:52:00,